Regional Weather Roundup
Issued by NWS State College, PA

Home | Current Version | Previous Version | Graphics & Text | Print | Product List | Glossary Off
Versions: 1 2 3 4 5 6 7 8 9 10 11 12 13 14 15 16 17 18 19 20 21 22 23 24 25 26 27 28 29 30 31 32 33 34 35 36 37 38 39 40 41 42 43 44 45 46 47 48 49 50

000
ASUS41 KCTP 130403
RWRCTP

REGIONAL WEATHER ROUNDUP
NATIONAL WEATHER SERVICE STATE COLLEGE PA
1100 PM EST FRI FEB 12 2016

Note: "fair" indicates few or no clouds below 12,000 feet with no
significant weather and/or obstructions to visibility.

* = STATION THAT DOES NOT REPORT PRECIPITATION /E.G. RAIN...SNOW...ETC/
    THUNDER OR FOG.

PAZ002>004-007>009-013>016-020>023-029>032-130500-
WESTERN PENNSYLVANIA

CITY           SKY/WX    TMP DP  RH WIND       PRES   REMARKS
ERIE           CLOUDY    19   4  51 N20G31    29.99R WCI   3
MEADVILLE      MOCLDY    16   3  56 W14G23    29.93R WCI   2
FRANKLIN*      CLOUDY    12   7  79 W9        29.94R WCI   0
NEW CASTLE     LGT SNOW  16  12  84 W8G17     30.01R FOG     WCI   5
BEAVER COUNTY  NOT AVBL
BUTLER*        CLOUDY    16  12  86 NW7       30.00R WCI   6
PITTSBURGH INT FLURRIES  18  10  71 W23G37    29.98R WCI   0
PITTSBURGH     CLOUDY    20  12  71 NW14G28   29.96R WCI   7
INDIANA*       CLOUDY    18  16  93 W14G21    29.93S FOG     WCI   4
LATROBE        LGT SNOW  18  16  93 SW12      29.97R WCI   5
WASHINGTON CO* MOCLDY    18   9  68 W16G29    30.01R WCI   3
$$

PAZ004>006-010>012-017>019-024>028-033>037-041-042-045-046-049>053-130500-
CENTRAL PENNSYLVANIA

CITY           SKY/WX    TMP DP  RH WIND       PRES   REMARKS
BRADFORD       LGT SNOW  13   7  77 W13       29.78S WCI  -2
DUBOIS         LGT SNOW  14  10  84 NW14G30   29.84R FOG     WCI  -1
CLEARFIELD     LGT SNOW  17  10  74 SW13G21   29.85S WCI   4
JOHNSTOWN      LGT SNOW  15   8  73 W17G26    29.82S WCI  -1
ALTOONA        LGT SNOW  19   9  65 W21G30    29.87F WCI   3
STATE COLLEGE  CLOUDY    18  11  75 W15       29.87F WCI   3
WILLIAMSPORT   CLOUDY    21  12  68 MISG      29.91F
SELINSGROVE    CLOUDY    19  14  81 SW5       29.94F WCI  12
FT INDIANTOWN  FLURRIES  19  18  98 SW2       29.94F
CAPITAL CITY   CLOUDY    21  16  81 W3        29.96F
HARRISBURG     CLOUDY    22  17  81 S6        29.96F WCI  14
YORK           CLOUDY    19  16  88 CALM      29.95F
$$

PAZ038>040-043-044-047-048-054-055-060>062-067>071-130500-
EASTERN PENNSYLVANIA

CITY           SKY/WX    TMP DP  RH WIND       PRES   REMARKS
SCRANTON       FLURRIES  17  11  77 SW10G16   29.86F WCI   5
MOUNT POCONO   LGT SNOW  13   7  77 W9        29.78F WCI   1
ALLENTOWN      LGT SNOW  20  13  74 SW9       29.94F WCI   9
QUAKERTOWN*    CLOUDY    19  14  79 W5        29.94F WCI  13
READING        LGT SNOW  19  15  84 CALM      29.95F FOG
LANCASTER      LGT SNOW  19  17  92 W5        29.96F FOG     WCI  12
COATESVILLE    LGT SNOW  18  19 100 W6        29.96S WCI   9
POTTSTOWN      CLOUDY    19  14  81 W6        29.97F WCI  11
BLUE BELL        N/A     21  14  73 W5        29.95F WCI  15
DOYLESTOWN     CLOUDY    19  12  74 SW5       29.94F WCI  12
WILLOW GROVE   NOT AVBL
NORTH PHILA    CLOUDY    23  14  68 W7        29.98F WCI  15
PHILADELPHIA   FLURRIES  23  16  74 W7        29.99F WCI  15
$$



USA.gov is the U.S. government's official web portal to all federal, state and local government web resources and services.